Location: Berg
(48.4333°N, 13.9167°E)
Time: 05:23:32
(UTC+00:00)

Resurs 01 Rocket - Pass Details

Date: 18 September 2020
Orbit: 633 x 645 km, 98.0° (Epoch: 27 October)

Event Time Altitude Azimuth Distance (km) Brightness Sun altitude
Exits shadow 20:56:48 16° 272° (W) 1,701 4.1 -33.6°
Drops below altitude 10° 20:59:25 10° 308° (NW) 2,051 5.0 -33.9°
Sets 21:02:29 0° 331° (NNW) 2,966 6.1 -34.2°
